Location: ??????????
(44.2167°N, 135.5333°E)
Time: 14:47:12
(UTC+00:00)

ALOS - Pass Details

Date: 15 June 2025
Orbit: 664 x 666 km, 98.1° (Epoch: 16 July)

Event Time Altitude Azimuth Distance (km) Brightness Sun altitude
Rises 18:21:09 0° 6° (N) 3,013 6.5 -8.1°
Reaches altitude 10° 18:23:29 10° 359° (N) 2,096 5.4 -7.8°
Maximum altitude 18:27:44 40° 290° (WNW) 988 2.9 -7.2°
Drops below altitude 10° 18:31:58 10° 222° (SW) 2,081 4.1 -6.7°
Enters shadow 18:32:26 - 220° (SW) 2,256 4.3 -6.6°
